Overview Statistics Trail Chart Weather Telemetry Raw packets
 

This is the latest recevied weather packets stored in our database for station/object SV9TNF-52. If no packets are shown the sender has not sent any weather packets the latest 10 day(s).

<< 7 8 9 10 11 12 13 >>
Time Temp. Humidity Pressure Rain* Wind** Luminosity Snow
1788604661 30° C 53% 1022.4 hPa 0 mm 6.26 m/s, 270° - -
1788604382 29.44° C 50% 1022.4 hPa 0 mm 10.73 m/s, 353° - -
1788604060 29.44° C 51% 1022.4 hPa 0 mm 10.28 m/s, 9° - -
1788603760 29.44° C 52% 1022 hPa 0 mm 8.49 m/s, 352° - -
1788603460 29.44° C 51% 1022 hPa 0 mm 9.83 m/s, 326° - -
1788603160 29.44° C 51% 1022 hPa 0 mm 5.36 m/s, 286° - -
1788602860 29.44° C 51% 1022.4 hPa 0 mm 7.15 m/s, 327° - -
1788602560 30.56° C 52% 1022.4 hPa 0 mm 5.81 m/s, 21° - -
1788602260 30° C 53% 1022.4 hPa 0 mm 12.52 m/s, 324° - -
1788601960 29.44° C 50% 1022.4 hPa 0 mm 11.18 m/s, 301° - -
1788601659 30.56° C 52% 1022.4 hPa 0 mm 9.39 m/s, 268° - -
1788601360 29.44° C 53% 1022.4 hPa 0 mm 12.96 m/s, 169° - -
1788601059 29.44° C 52% 1022.4 hPa 0 mm 8.94 m/s, 232° - -
1788600759 30° C 53% 1022.4 hPa 0 mm 10.28 m/s, 337° - -
1788600459 30° C 52% 1022.4 hPa 0 mm 8.94 m/s, 293° - -
1788600159 30.56° C 52% 1022.4 hPa 0 mm 9.39 m/s, 335° - -
1788599859 29.44° C 52% 1022.4 hPa 0 mm 11.62 m/s, 260° - -
1788599559 30° C 51% 1022.4 hPa 0 mm 8.05 m/s, 321° - -
1788599259 30° C 52% 1022.4 hPa 0 mm 7.15 m/s, 197° - -
1788598958 30° C 47% 1022.4 hPa 0 mm 7.15 m/s, 27° - -
1788598659 29.44° C 50% 1022.4 hPa 0 mm 5.81 m/s, 117° - -
1788598358 29.44° C 51% 1022.4 hPa 0 mm 16.99 m/s, 101° - -
1788598076 29.44° C 51% 1022.4 hPa 0 mm 6.71 m/s, 237° - -
1788597758 29.44° C 51% 1022.4 hPa 0 mm 7.6 m/s, 69° - -
1788597458 29.44° C 52% 1022.4 hPa 0 mm 8.94 m/s, 354° - -

* Rain latest hour (hover to see other rain measurements)
** Current wind speed in m/s (hover to see current wind gust speed)